This is the latest recevied weather packets stored in our database for station/object K3JSE-4. If no packets are shown the sender has not sent any weather packets the latest 10 day(s).
| Time | Temp. | Humidity | Pressure | Rain* | Wind** | Luminosity | Snow |
|---|---|---|---|---|---|---|---|
| 1777409143 | 12.78° C | 61% | 1019.2 hPa | 0 mm | - | - | - |
| 1777408843 | 12.78° C | 60% | 1019 hPa | 0 mm | - | - | - |
| 1777408543 | 12.78° C | 60% | 1019.2 hPa | 0 mm | - | - | - |
| 1777408243 | 12.78° C | 60% | 1019.3 hPa | 0 mm | - | - | - |
| 1777407943 | 12.78° C | 61% | 1019.4 hPa | 0 mm | - | - | - |
| 1777407643 | 12.78° C | 65% | 1019.4 hPa | 0 mm | - | - | - |
| 1777407343 | 12.78° C | 66% | 1019.3 hPa | 0 mm | - | - | - |
| 1777407043 | 12.78° C | 68% | 1019.3 hPa | 0 mm | - | - | - |
| 1777406744 | 12.78° C | 67% | 1019.6 hPa | 0 mm | - | - | - |
| 1777406444 | 12.78° C | 67% | 1019.5 hPa | 0 mm | - | - | - |
| 1777406144 | 12.78° C | 68% | 1019.4 hPa | 0 mm | - | - | - |
| 1777405844 | 12.78° C | 67% | 1019.4 hPa | 0 mm | - | - | - |
| 1777405544 | 12.78° C | 67% | 1019.8 hPa | 0 mm | - | - | - |
| 1777405244 | 12.78° C | 66% | 1019.9 hPa | 0 mm | - | - | - |
| 1777404944 | 13.33° C | 67% | 1020.1 hPa | 0 mm | - | - | - |
| 1777404644 | 13.33° C | 66% | 1020 hPa | 0 mm | - | - | - |
| 1777404344 | 13.33° C | 65% | 1020 hPa | 0 mm | - | - | - |
| 1777404044 | 13.33° C | 63% | 1020 hPa | 0 mm | - | - | - |
| 1777403744 | 13.33° C | 64% | 1020 hPa | 0 mm | - | - | - |
| 1777403444 | 13.89° C | 65% | 1020.1 hPa | 0 mm | - | - | - |
| 1777403144 | 13.89° C | 63% | 1020.2 hPa | 0 mm | - | - | - |
| 1777402844 | 13.89° C | 62% | 1020.2 hPa | 0 mm | - | - | - |
| 1777402544 | 13.89° C | 62% | 1020.2 hPa | 0 mm | - | - | - |
| 1777402244 | 13.89° C | 62% | 1020.3 hPa | 0.25 mm | - | - | - |
| 1777401944 | 13.89° C | 61% | 1020.4 hPa | 0.25 mm | - | - | - |
* Rain latest hour (hover to see other rain measurements)
** Current wind speed in m/s (hover to see current wind gust speed)